KF0EZB Weather Reports


time (UTC)temp
C
wind
direction
speed
KPH
gust
KPH
rain 1hr
cm
rain 24hr
cm
rain mn
cm
humidity
%
barometer
mb
20260906195420 31 87 9.7 16.1 0.00 0.00 0.00 53 1014.1
20260906194916 31 91 8.0 17.7 0.00 0.00 0.00 55 1014.0
20260906194411 30 79 11.3 12.9 0.00 0.00 0.00 56 1014.4
20260906193907 30 76 11.3 14.5 0.00 0.00 0.00 56 1014.3
20260906193401 30 79 14.5 16.1 0.00 0.00 0.00 57 1014.5
20260906192857 30 107 11.3 14.5 0.00 0.00 0.00 58 1014.4
20260906192351 30 76 3.2 14.5 0.00 0.00 0.00 58 1014.7
20260906191850 30 94 8.0 11.3 0.00 0.00 0.00 58 1015.0
20260906191345 30 88 11.3 12.9 0.00 0.00 0.00 59 1014.9
20260906190844 30 105 8.0 11.3 0.00 0.00 0.00 59 1015.0
20260906190344 29 86 3.2 16.1 0.00 0.00 0.00 60 1015.4
20260906185839 29 84 11.3 16.1 0.00 0.00 0.00 60 1015.2
20260906185337 29 92 9.7 14.5 0.00 0.00 0.00 60 1015.2
20260906184832 29 81 6.4 12.9 0.00 0.00 0.00 60 1015.5
20260906184327 29 88 4.8 11.3 0.00 0.00 0.00 62 1015.6
20260906183823 29 104 8.0 11.3 0.00 0.00 0.00 61 1015.8
20260906183319 29 96 6.4 9.7 0.00 0.00 0.00 61 1015.7
20260906182819 29 61 3.2 8.0 0.00 0.00 0.00 61 1015.9
20260906182315 29 45 3.2 11.3 0.00 0.00 0.00 60 1016.1
20260906181814 30 53 9.7 12.9 0.00 0.00 0.00 60 1016.1
20260906181311 30 36 9.7 14.5 0.00 0.00 0.00 60 1016.2
20260906180806 30 53 4.8 14.5 0.00 0.00 0.00 59 1016.5
20260906180301 30 62 6.4 12.9 0.00 0.00 0.00 58 1016.4
20260906175758 30 68 6.4 11.3 0.00 0.00 0.00 58 1016.3
20260906175254 31 80 8.0 12.9 0.00 0.00 0.00 57 1016.8
20260906174753 31 111 1.6 4.8 0.00 0.00 0.00 57 1016.9
20260906174252 30 128 6.4 12.9 0.00 0.00 0.00 59 1016.9
20260906173747 30 88 6.4 12.9 0.00 0.00 0.00 58 1017.1
20260906173243 30 65 4.8 11.3 0.00 0.00 0.00 60 1016.9
20260906172742 30 83 6.4 8.0 0.00 0.00 0.00 60 1017.2
20260906172237 29 92 3.2 9.7 0.00 0.00 0.00 62 1017.3
20260906171732 29 138 6.4 12.9 0.00 0.00 0.00 62 1017.1
20260906171228 30 118 6.4 14.5 0.00 0.00 0.00 61 1017.5
20260906170724 30 79 6.4 17.7 0.00 0.00 0.00 60 1017.4
20260906170219 29 150 4.8 16.1 0.00 0.00 0.00 62 1017.4
20260906165715 30 97 6.4 14.5 0.00 0.00 0.00 61 1017.5
20260906165210 30 63 8.0 12.9 0.00 0.00 0.00 61 1017.5
20260906164709 30 91 6.4 12.9 0.00 0.00 0.00 61 1017.4
20260906164204 30 71 4.8 14.5 0.00 0.00 0.00 61 1017.5
20260906163700 29 71 4.8 8.0 0.00 0.00 0.00 63 1017.7
20260906163156 29 319 8.0 16.1 0.00 0.00 0.00 63 1017.8
20260906162653 29 86 4.8 11.3 0.00 0.00 0.00 64 1017.6
20260906162152 28 93 1.6 12.9 0.00 0.00 0.00 67 1017.9
20260906161647 27 84 4.8 8.0 0.00 0.00 0.00 68 1017.8
20260906161146 27 43 3.2 16.1 0.00 0.00 0.00 69 1017.8
20260906160645 27 53 4.8 12.9 0.00 0.00 0.00 70 1017.9
20260906160144 27 65 4.8 12.9 0.00 0.00 0.00 70 1017.9
20260906155642 26 114 1.6 8.0 0.00 0.00 0.00 71 1017.7
20260906155138 27 31 8.0 11.3 0.00 0.00 0.00 71 1017.8
20260906154633 26 120 1.6 8.0 0.00 0.00 0.00 72 1017.8
20260906154133 27 71 4.8 9.7 0.00 0.00 0.00 71 1017.7
20260906153631 26 78 6.4 9.7 0.00 0.00 0.00 71 1017.6
20260906153127 27 102 6.4 16.1 0.00 0.00 0.00 71 1017.5
20260906152621 26 107 1.6 3.2 0.00 0.00 0.00 71 1017.7
20260906152115 26 112 1.6 11.3 0.00 0.00 0.00 72 1017.7
20260906151610 27 64 3.2 4.8 0.00 0.00 0.00 71 1017.5
20260906151106 26 158 1.6 9.7 0.00 0.00 0.00 72 1017.5
20260906150601 26 98 1.6 4.8 0.00 0.00 0.00 72 1017.3
20260906150056 26 97 1.6 12.9 0.00 0.00 0.00 72 1017.4
20260906145555 26 127 1.6 4.8 0.00 0.00 0.00 73 1017.5
20260906145050 26 46 1.6 3.2 0.00 0.00 0.00 73 1017.4
20260906144544 26 93 1.6 9.7 0.00 0.00 0.00 73 1017.2
20260906144040 25 155 1.6 4.8 0.00 0.00 0.00 73 1017.3
20260906143534 26 135 3.2 9.7 0.00 0.00 0.00 72 1017.5
20260906143031 26 68 4.8 9.7 0.00 0.00 0.00 71 1017.3
20260906142525 25 193 3.2 4.8 0.00 0.00 0.00 71 1017.6
20260906142021 25 120 0.0 3.2 0.00 0.00 0.00 71 1017.4
20260906141519 25 266 1.6 3.2 0.00 0.00 0.00 72 1017.5
20260906141015 25 302 0.0 0.0 0.00 0.00 0.00 72 1017.5
20260906140509 25 302 6.4 9.7 0.00 0.00 0.00 72 1017.4
20260906140008 25 300 0.0 4.8 0.00 0.00 0.00 72 1017.4
20260906135505 24 298 8.0 12.9 0.00 0.00 0.00 74 1017.5
20260906135001 24 307 11.3 16.1 0.00 0.00 0.00 76 1017.5
20260906134457 25 137 1.6 1.6 0.00 0.00 0.00 77 1017.1
20260906133957 24 137 1.6 1.6 0.00 0.00 0.00 77 1016.9
20260906133453 24 138 1.6 1.6 0.00 0.00 0.00 77 1016.5
20260906132948 24 139 0.0 0.0 0.00 0.00 0.00 78 1016.5
20260906132443 24 140 0.0 0.0 0.00 0.00 0.00 79 1016.2
20260906131938 24 141 0.0 0.0 0.00 0.00 0.00 78 1016.2
20260906131434 24 152 0.0 0.0 0.00 0.00 0.00 77 1016.2
20260906130930 23 152 0.0 0.0 0.00 0.00 0.00 76 1016.1
20260906130429 23 152 0.0 0.0 0.00 0.00 0.00 78 1015.9
20260906125929 23 152 0.0 0.0 0.00 0.00 0.00 79 1016.0
20260906125426 23 152 0.0 0.0 0.00 0.00 0.00 80 1015.9
20260906124926 23 152 0.0 0.0 0.00 0.00 0.00 79 1015.6
20260906124422 23 152 0.0 0.0 0.00 0.00 0.00 80 1015.7
20260906123916 22 152 0.0 0.0 0.00 0.00 0.00 80 1015.5
20260906123416 22 152 0.0 0.0 0.00 0.00 0.00 80 1015.7
20260906122916 22 152 0.0 0.0 0.00 0.00 0.00 81 1015.6
20260906122410 22 152 0.0 0.0 0.00 0.00 0.00 81 1015.4
20260906121908 22 152 0.0 0.0 0.00 0.00 0.00 82 1015.2
20260906121403 22 152 0.0 0.0 0.00 0.00 0.00 81 1015.2
20260906120859 22 152 0.0 0.0 0.00 0.00 0.00 81 1014.9
20260906120355 22 152 0.0 0.0 0.00 0.00 0.00 81 1014.9
20260906115851 22 152 0.0 0.0 0.00 0.00 0.00 81 1014.6
20260906115346 22 152 0.0 0.0 0.00 0.00 0.00 80 1014.7
20260906114845 22 152 0.0 0.0 0.00 0.00 0.00 80 1014.7
20260906114340 22 154 0.0 0.0 0.00 0.00 0.00 80 1014.7
20260906113835 22 155 0.0 0.0 0.00 0.00 0.00 80 1014.7
20260906113334 22 155 0.0 0.0 0.00 0.00 0.00 79 1014.6
20260906112830 22 156 0.0 0.0 0.00 0.00 0.00 79 1014.6
20260906112326 22 156 0.0 0.0 0.00 0.00 0.00 79 1014.5
20260906111826 22 157 0.0 0.0 0.00 0.00 0.00 79 1014.4
20260906111320 22 162 0.0 0.0 0.00 0.00 0.00 79 1014.3
20260906110815 22 168 0.0 0.0 0.00 0.00 0.00 79 1014.4
20260906110311 22 179 0.0 0.0 0.00 0.00 0.00 79 1014.2
20260906105810 22 156 0.0 0.0 0.00 0.00 0.00 80 1014.1
20260906105306 22 153 0.0 1.6 0.00 0.00 0.00 80 1014.2
20260906104801 22 153 0.0 1.6 0.00 0.00 0.00 80 1014.2
20260906104259 22 154 0.0 0.0 0.00 0.00 0.00 80 1014.2
20260906103757 22 155 0.0 1.6 0.00 0.00 0.00 80 1014.2
20260906103252 22 152 0.0 1.6 0.00 0.00 0.00 80 1014.1
20260906102748 22 156 0.0 0.0 0.00 0.00 0.00 80 1014.1
20260906102246 22 154 0.0 0.0 0.00 0.00 0.00 79 1014.5
20260906101742 22 154 0.0 0.0 0.00 0.00 0.00 79 1014.5
20260906101237 22 155 0.0 0.0 0.00 0.00 0.00 78 1014.4
20260906100732 23 157 0.0 0.0 0.00 0.00 0.00 77 1014.3
20260906100231 23 158 0.0 0.0 0.00 0.00 0.00 77 1014.2
20260906095727 23 158 0.0 0.0 0.00 0.00 0.00 77 1014.4
20260906095222 23 155 0.0 0.0 0.00 0.00 0.00 77 1014.2
20260906094721 23 155 0.0 0.0 0.00 0.00 0.00 77 1014.4
20260906094216 23 153 0.0 0.0 0.00 0.00 0.00 77 1014.4
20260906093713 23 153 0.0 0.0 0.00 0.00 0.00 77 1014.0
20260906093208 23 153 0.0 0.0 0.00 0.00 0.00 77 1014.2
20260906092703 23 154 0.0 0.0 0.00 0.00 0.00 77 1014.1
20260906092202 22 152 0.0 0.0 0.00 0.00 0.00 78 1014.1
20260906091659 22 152 0.0 0.0 0.00 0.00 0.00 79 1014.3
20260906091155 22 136 0.0 0.0 0.00 0.00 0.00 79 1014.2
20260906090651 22 150 0.0 0.0 0.00 0.00 0.00 78 1014.0
20260906090150 23 145 0.0 0.0 0.00 0.00 0.00 78 1014.3
20260906085649 23 149 0.0 0.0 0.00 0.00 0.00 78 1014.2
20260906085143 23 147 0.0 0.0 0.00 0.00 0.00 78 1014.2
20260906084638 23 147 0.0 0.0 0.00 0.00 0.00 78 1014.2
20260906084137 23 154 0.0 0.0 0.00 0.00 0.00 78 1014.1
20260906083632 23 154 0.0 0.0 0.00 0.00 0.00 77 1014.1
20260906083127 23 155 0.0 0.0 0.00 0.00 0.00 77 1014.1
20260906082623 23 144 0.0 0.0 0.00 0.00 0.00 77 1013.9
20260906082118 23 144 0.0 0.0 0.00 0.00 0.00 77 1014.2
20260906081614 23 145 0.0 0.0 0.00 0.00 0.00 77 1014.1
20260906081109 23 146 0.0 0.0 0.00 0.00 0.00 78 1014.1
20260906080606 23 152 0.0 0.0 0.00 0.00 0.00 78 1014.1
20260906075555 23 150 0.0 0.0 0.00 0.00 0.00 80 1013.9
20260906075050 23 147 0.0 0.0 0.00 0.00 0.00 80 1014.2
20260906074545 23 145 0.0 0.0 0.00 0.00 0.00 79 1014.0
20260906074043 23 140 0.0 0.0 0.00 0.00 0.00 79 1014.2
20260906073538 23 138 0.0 0.0 0.00 0.00 0.00 79 1014.2
20260906073035 23 145 0.0 0.0 0.00 0.00 0.00 79 1014.2
20260906072529 23 106 0.0 0.0 0.00 0.00 0.00 79 1014.1
20260906072026 23 154 0.0 0.0 0.00 0.00 0.00 78 1014.1
20260906071521 23 152 0.0 0.0 0.00 0.00 0.00 78 1014.1
20260906071016 23 148 0.0 0.0 0.00 0.00 0.00 78 1014.2
20260906070512 23 148 0.0 0.0 0.00 0.00 0.00 78 1014.2
20260906070008 23 152 0.0 0.0 0.00 0.00 0.00 79 1014.2
20260906065502 23 154 0.0 0.0 0.00 0.00 0.00 80 1014.1
20260906064957 23 135 0.0 0.0 0.00 0.00 0.00 80 1014.3
20260906064453 23 150 0.0 0.0 0.00 0.00 0.00 81 1014.0
20260906063948 23 148 0.0 0.0 0.00 0.00 0.00 81 1014.0
20260906063444 23 145 0.0 1.6 0.00 0.00 0.00 82 1014.1
20260906062944 23 144 0.0 0.0 0.00 0.00 0.00 82 1014.1
20260906062439 23 143 0.0 1.6 0.00 0.00 0.00 82 1013.9
20260906061934 23 128 0.0 0.0 0.00 0.00 0.00 82 1014.0
20260906061430 23 125 0.0 0.0 0.00 0.00 0.00 83 1013.7
20260906060930 23 119 0.0 3.2 0.00 0.00 0.00 83 1013.9
20260906060427 23 116 1.6 3.2 0.00 0.00 0.00 84 1013.8
20260906055923 23 107 1.6 3.2 0.00 0.00 0.00 84 1013.7
20260906055419 23 117 0.0 3.2 0.00 0.00 0.00 84 1013.5
20260906054914 23 107 0.0 1.6 0.00 0.00 0.00 85 1013.5
20260906054409 23 111 0.0 3.2 0.00 0.00 0.00 86 1013.8
20260906053905 23 112 1.6 1.6 0.00 0.00 0.00 87 1013.7
20260906053400 23 113 3.2 3.2 0.00 0.00 0.00 88 1013.8
20260906052856 23 117 0.0 1.6 0.00 0.00 0.00 89 1013.7
20260906052352 23 119 0.0 0.0 0.00 0.00 0.00 90 1013.7
20260906051849 23 121 0.0 3.2 0.00 0.00 0.00 91 1013.3
20260906051348 23 125 0.0 0.0 0.00 0.00 0.00 91 1013.5
20260906050845 23 128 0.0 1.6 0.00 0.00 0.00 91 1013.8
20260906050339 23 134 1.6 1.6 0.00 0.00 0.00 91 1013.7
20260906045838 23 134 0.0 0.0 0.00 0.10 0.10 91 1013.8
20260906045332 23 135 0.0 1.6 0.00 0.10 0.10 91 1013.9
20260906044829 23 135 1.6 1.6 0.00 0.10 0.10 91 1013.7
20260906044323 23 137 1.6 1.6 0.00 0.10 0.10 91 1014.0
20260906043819 23 141 0.0 0.0 0.00 0.10 0.10 90 1014.0
20260906043315 23 140 0.0 1.6 0.00 0.10 0.10 90 1014.1
20260906042815 23 150 0.0 0.0 0.00 0.10 0.10 90 1014.2
20260906042314 23 150 0.0 0.0 0.00 0.10 0.10 90 1013.9
20260906041809 23 106 0.0 0.0 0.00 0.10 0.10 90 1013.9
20260906041304 23 155 0.0 1.6 0.00 0.10 0.10 89 1014.1
20260906040800 23 157 0.0 0.0 0.00 0.10 0.10 89 1014.0
20260906040255 23 157 0.0 1.6 0.00 0.10 0.10 90 1013.8
20260906035750 23 156 0.0 1.6 0.00 0.10 0.10 90 1013.8
20260906035246 23 155 0.0 1.6 0.00 0.10 0.10 90 1013.8
20260906034746 23 152 0.0 0.0 0.00 0.10 0.10 91 1013.8
20260906034241 23 145 0.0 0.0 0.00 0.10 0.10 91 1013.9
20260906033737 23 144 0.0 1.6 0.00 0.10 0.10 92 1013.8
20260906033236 23 157 0.0 0.0 0.00 0.10 0.10 92 1013.7
20260906032733 23 152 0.0 0.0 0.00 0.10 0.10 92 1013.8
20260906032232 23 157 0.0 0.0 0.00 0.10 0.10 92 1013.8
20260906031728 23 154 0.0 0.0 0.00 0.10 0.10 92 1013.4
20260906031224 23 152 0.0 0.0 0.00 0.10 0.10 91 1013.5
20260906030723 24 153 0.0 0.0 0.00 0.10 0.10 91 1013.4
20260906030218 23 147 0.0 0.0 0.00 0.10 0.10 91 1013.5
20260906025717 24 146 0.0 0.0 0.00 0.10 0.10 91 1013.3
20260906025212 24 146 0.0 0.0 0.00 0.10 0.10 91 1013.3
20260906024711 24 142 0.0 0.0 0.00 0.10 0.10 91 1013.3
20260906024210 24 147 0.0 0.0 0.00 0.10 0.10 90 1013.4
20260906023707 24 147 0.0 0.0 0.00 0.10 0.10 90 1013.5
20260906023207 24 138 0.0 1.6 0.00 0.10 0.10 90 1013.5
20260906022702 24 143 0.0 0.0 0.00 0.10 0.10 89 1013.1
20260906022158 24 143 0.0 0.0 0.00 0.10 0.10 89 1013.1
20260906021653 24 137 0.0 0.0 0.00 0.10 0.10 89 1013.1
20260906021152 25 140 0.0 1.6 0.00 0.10 0.10 89 1012.9
20260906020646 25 147 0.0 0.0 0.00 0.10 0.10 88 1012.8
20260906020142 25 143 0.0 1.6 0.00 0.10 0.10 88 1012.9
20260906015636 25 154 0.0 1.6 0.00 0.10 0.10 88 1013.1
20260906015134 25 146 1.6 1.6 0.00 0.10 0.10 88 1013.0
20260906014629 25 144 0.0 0.0 0.00 0.10 0.10 88 1012.6
20260906014125 25 138 0.0 0.0 0.00 0.10 0.10 88 1012.5
20260906013620 25 126 0.0 0.0 0.00 0.10 0.10 87 1012.5
20260906013116 25 136 0.0 0.0 0.00 0.10 0.10 86 1012.5
20260906012610 25 132 0.0 0.0 0.00 0.10 0.10 86 1012.4
20260906012105 25 166 0.0 0.0 0.00 0.10 0.10 85 1012.3
20260906011601 25 173 0.0 1.6 0.00 0.10 0.10 85 1012.4
20260906011101 26 213 1.6 3.2 0.00 0.10 0.10 84 1012.6
20260906010556 26 210 0.0 1.6 0.00 0.10 0.10 84 1012.6
20260906010052 26 165 0.0 0.0 0.00 0.10 0.10 84 1012.4
20260906005051 26 166 0.0 0.0 0.00 0.10 0.10 84 1012.4
20260906004550 26 166 0.0 0.0 0.00 0.10 0.10 84 1012.4
20260906004045 26 167 0.0 0.0 0.00 0.10 0.10 84 1012.6
20260906003540 26 168 0.0 0.0 0.00 0.10 0.10 83 1012.2
20260906003037 26 172 0.0 0.0 0.00 0.10 0.10 82 1012.4
20260906002531 26 168 0.0 0.0 0.00 0.10 0.10 82 1012.7
20260906002026 26 168 1.6 1.6 0.00 0.10 0.10 82 1012.3
20260906001521 26 166 0.0 0.0 0.00 0.10 0.10 83 1012.4
20260906001015 25 166 0.0 0.0 0.00 0.10 0.10 81 1012.4
20260906000512 26 171 0.0 0.0 0.00 0.10 0.10 81 1012.3
20260906000006 26 187 0.0 1.6 0.00 0.10 0.10 79 1012.3
20260905235500 25 221 0.0 4.8 0.00 0.10 0.10 79 1012.4
20260905234955 24 273 4.8 8.0 0.00 0.10 0.10 85 1012.6
20260905234450 23 252 4.8 8.0 0.00 0.10 0.10 89 1012.6
20260905233944 23 286 4.8 9.7 0.00 0.10 0.10 90 1012.6
20260905233440 23 256 4.8 8.0 0.00 0.10 0.10 91 1012.5
20260905232938 23 206 0.0 4.8 0.00 0.10 0.10 90 1012.5
20260905232435 23 237 1.6 3.2 0.13 0.10 0.10 89 1012.3
20260905231931 24 248 3.2 3.2 0.13 0.10 0.10 88 1012.4
20260905231426 25 226 1.6 3.2 0.36 0.08 0.08 85 1012.7
20260905230923 26 235 1.6 3.2 0.48 0.08 0.08 79 1012.9
20260905230421 28 200 0.0 9.7 0.13 0.03 0.03 69 1013.2
20260905225919 28 1 0.0 0.0 0.00 0.00 0.00 64 1013.1
20260905225415 29 297 1.6 3.2 0.00 0.00 0.00 61 1013.1
20260905224909 29 190 1.6 1.6 0.00 0.00 0.00 58 1012.7
20260905224405 29 207 1.6 4.8 0.00 0.00 0.00 59 1012.6
20260905223900 30 256 3.2 8.0 0.00 0.00 0.00 58 1013.0
20260905223358 30 264 0.0 1.6 0.00 0.00 0.00 56 1012.9
20260905222858 30 125 0.0 4.8 0.00 0.00 0.00 57 1012.8
20260905222356 30 304 3.2 4.8 0.00 0.00 0.00 56 1012.7
20260905221853 29 152 1.6 3.2 0.00 0.00 0.00 58 1012.5
20260905221349 29 144 1.6 3.2 0.00 0.00 0.00 59 1012.7
20260905220845 29 116 1.6 4.8 0.00 0.00 0.00 58 1012.7
20260905220341 30 195 1.6 3.2 0.00 0.00 0.00 58 1012.6
20260905215840 30 86 0.0 9.7 0.00 0.00 0.00 56 1012.8
20260905215336 30 285 0.0 14.5 0.00 0.00 0.00 55 1012.6
20260905214832 30 128 9.7 14.5 0.00 0.00 0.00 56 1012.4
20260905214327 33 57 3.2 11.3 0.00 0.00 0.00 51 1012.6
20260905213822 36 98 1.6 9.7 0.00 0.00 0.00 37 1012.3
20260905213318 36 81 1.6 4.8 0.00 0.00 0.00 37 1012.4
20260905212813 36 143 1.6 4.8 0.00 0.00 0.00 37 1011.9
20260905212312 36 163 3.2 9.7 0.00 0.00 0.00 37 1011.7
20260905211808 36 198 4.8 8.0 0.00 0.00 0.00 37 1011.7
20260905211302 36 143 1.6 8.0 0.00 0.00 0.00 36 1011.9
20260905210759 36 134 0.0 9.7 0.00 0.00 0.00 36 1011.5
20260905210258 36 166 1.6 9.7 0.00 0.00 0.00 36 1011.7
20260905205757 36 130 3.2 8.0 0.00 0.00 0.00 36 1011.9
20260905205252 36 129 1.6 16.1 0.00 0.00 0.00 36 1012.1
20260905204751 37 107 3.2 16.1 0.00 0.00 0.00 36 1012.0
20260905204248 37 208 3.2 4.8 0.00 0.00 0.00 35 1012.1
20260905203746 37 202 3.2 4.8 0.00 0.00 0.00 35 1012.2
20260905203242 37 136 11.3 17.7 0.00 0.00 0.00 35 1012.1
20260905202737 37 148 1.6 16.1 0.00 0.00 0.00 36 1012.0
20260905202233 38 212 8.0 14.5 0.00 0.00 0.00 34 1012.1
20260905201728 37 149 3.2 11.3 0.00 0.00 0.00 35 1012.2
20260905201223 37 214 8.0 11.3 0.00 0.00 0.00 36 1012.2
20260905200718 37 359 3.2 12.9 0.00 0.00 0.00 36 1012.4
20260905200214 37 169 4.8 9.7 0.00 0.00 0.00 36 1012.5
20260905195712 37 171 0.0 9.7 0.00 0.00 0.00 36 1012.3